Погода в Беломорье

Россия / Архангельская область     64°17′39″N   40°53′31″E
темп.,
°C
ветер,
м/с
пор.,
м/с
влажн.,
%
обл.,
%
осадки,
мм/ч
давл.,
гПа
погр.,
м
22 апреля, чт
чт2200:00+4ююв51296100 0.1 1006884
03:00+3ююв51096100 0.3 1005768
06:00+2ююв41196100 0.9 1004742
09:00+3ю498482 1.4 1004905
12:00+5ю5968100 0.3 10041311
15:00+5ююз586698 0.7 10051293
18:00+6ююз366699 0.3 10051173
21:00+3юз387798 0.3 1007538
23 апреля, пт
пт2300:00+3юз4986100 0.0 1009716
03:00+3юз388282 0.0 1011518
06:00+3ююз3879100 0.0 1012325
09:00+7ю246462 0.0 1014760
12:00+11ююв355962 0.0 10141135
15:00+14юв4750100 0.0 10131792
18:00+12юв4106066 0.0 1012796
21:00+11юв51469100 0.0 1012685
24 апреля, сб
сб2400:00+10юв41277100 0.1 1012542
03:00+9ююв41187100 0.1 1012471
06:00+8юв3992100 0.0 1013369
09:00+11юв4776100 0.0 1013657
12:00+14юв595449 0.0 10121431
15:00+15юв594796 0.4 10112288
18:00+14вюв5104741 0.0 10101628
21:00+11юв4125943 0.0 1011596
25 апреля, вс
вс2500:00+8вюв41174100 0.0 1010484
03:00+7вюв41173100 0.0 1009583
06:00+7в41170100 0.0 1008664
09:00+8в4966100 0.0 1007865
12:00+8вюв4874100 0.1 10071132
15:00+8вюв267582 0.3 1006946
18:00+9в4769100 0.2 10051059
21:00+7в4785100 0.6 1005958
26 апреля, пн
пн2600:00+6всв3788100 0.3 1004829
03:00+5св2587100 0.4 1003232
06:00+5всв2689100 0.1 1002561
09:00+5св2590100 0.3 1002741
12:00+5всв2488100 0.1 1002790
15:00+6св238372 0.2 1002546
18:00+6всв228470 0.1 1001484
21:00+4ссв119357 0.1 100111